IU7QYM-13 Weather Reports


Display with metric or nautical units.
time (UTC)temp
F
wind
direction
speed
MPH
gust
MPH
rain 1hr
in
rain 24hr
in
rain mn
in
humidity
%
barometer
mb
20260906044034 77 312 4.0 5.0 0.00 0.00 0.00 42
20260906043034 77 303 4.0 5.0 0.00 0.00 0.00 42
20260906042034 77 299 4.0 5.0 0.00 0.00 0.00 42
20260906041034 77 294 4.0 5.0 0.00 0.00 0.00 43
20260906040034 77 302 4.0 6.0 0.00 0.00 0.00 44
20260906035034 77 301 4.0 7.0 0.00 0.00 0.00 44
20260906034034 77 289 3.0 6.0 0.00 0.00 0.00 45
20260906033033 77 292 3.0 5.0 0.00 0.00 0.00 46
20260906032034 77 295 3.0 5.0 0.00 0.00 0.00 47
20260906031034 78 275 3.0 7.0 0.00 0.00 0.00 47
20260906030034 77 278 3.0 6.0 0.00 0.00 0.00 47
20260906025034 77 273 3.0 5.0 0.00 0.00 0.00 48
20260906024054 77 290 3.0 6.0 0.00 0.00 0.00 48
20260906023033 77 278 3.0 6.0 0.00 0.00 0.00 48
20260906022033 77 269 3.0 7.0 0.00 0.00 0.00 48
20260906021034 77 257 4.0 7.0 0.00 0.00 0.00 49
20260906020034 77 270 3.0 6.0 0.00 0.00 0.00 49
20260906015033 78 260 3.0 7.0 0.00 0.00 0.00 49
20260906014034 78 248 4.0 6.0 0.00 0.00 0.00 49
20260906013034 77 255 3.0 5.0 0.00 0.00 0.00 50
20260906012033 77 248 4.0 7.0 0.00 0.00 0.00 50
20260906011034 78 248 4.0 7.0 0.00 0.00 0.00 50
20260906010034 78 249 5.0 7.0 0.00 0.00 0.00 50
20260906005034 78 250 4.0 7.0 0.00 0.00 0.00 49
20260906004054 78 270 4.0 7.0 0.00 0.00 0.00 49
20260906003034 78 266 4.0 7.0 0.00 0.00 0.00 50
20260906002034 78 268 3.0 6.0 0.00 0.00 0.00 50
20260906001034 78 256 3.0 7.0 0.00 0.00 0.00 50
20260906000033 78 255 4.0 7.0 0.00 0.00 0.00 50
20260905235034 78 255 5.0 7.0 0.00 0.00 0.00 50
20260905234034 78 247 4.0 6.0 0.00 0.00 0.00 50
20260905233034 79 239 4.0 5.0 0.00 0.00 0.00 49
20260905232034 79 240 4.0 5.0 0.00 0.00 0.00 47
20260905231034 80 237 3.0 6.0 0.00 0.00 0.00 46
20260905230034 81 234 4.0 5.0 0.00 0.00 0.00 46
20260905225054 80 216 5.0 7.0 0.00 0.00 0.00 42
20260905224034 80 209 6.0 7.0 0.00 0.00 0.00 39
20260905223034 80 205 6.0 7.0 0.00 0.00 0.00 37
20260905222054 80 202 6.0 8.0 0.00 0.00 0.00 37
20260905221034 80 202 5.0 7.0 0.00 0.00 0.00 38
20260905220034 80 196 4.0 7.0 0.00 0.00 0.00 38
20260905215034 80 204 5.0 7.0 0.00 0.00 0.00 39
20260905214033 80 188 4.0 6.0 0.00 0.00 0.00 40
20260905213034 79 206 5.0 7.0 0.00 0.00 0.00 43
20260905212034 79 206 4.0 7.0 0.00 0.00 0.00 49
20260905211033 79 191 6.0 9.0 0.00 0.00 0.00 50
20260905210034 79 189 6.0 10.0 0.00 0.00 0.00 48
20260905205114 79 185 6.0 8.0 0.00 0.00 0.00 49
20260905204034 79 178 6.0 9.0 0.00 0.00 0.00 49
20260905203034 79 184 6.0 9.0 0.00 0.00 0.00 50
20260905202114 80 178 6.0 9.0 0.00 0.00 0.00 49
20260905201054 80 178 6.0 9.0 0.00 0.00 0.00 48
20260905200033 80 171 6.0 10.0 0.00 0.00 0.00 48
20260905195034 80 169 5.0 8.0 0.00 0.00 0.00 48
20260905194034 80 167 6.0 10.0 0.00 0.00 0.00 47
20260905193034 81 171 6.0 8.0 0.00 0.00 0.00 47
20260905192033 81 173 6.0 8.0 0.00 0.00 0.00 47
20260905191034 81 158 6.0 8.0 0.00 0.00 0.00 46
20260905190034 81 170 6.0 9.0 0.00 0.00 0.00 46
20260905185034 82 171 5.0 8.0 0.00 0.00 0.00 46
20260905184054 82 175 5.0 8.0 0.00 0.00 0.00 45
20260905183034 82 176 6.0 9.0 0.00 0.00 0.00 44
20260905182034 82 177 6.0 10.0 0.00 0.00 0.00 43
20260905181034 83 189 6.0 9.0 0.00 0.00 0.00 42
20260905180034 83 185 6.0 9.0 0.00 0.00 0.00 42
20260905175034 84 172 6.0 8.0 0.00 0.00 0.00 41
20260905174054 84 175 5.0 8.0 0.00 0.00 0.00 41
20260905173034 85 159 6.0 8.0 0.00 0.00 0.00 41
20260905172054 86 174 4.0 8.0 0.00 0.00 0.00 39
20260905171033 86 160 5.0 7.0 0.00 0.00 0.00 37
20260905170034 87 166 5.0 9.0 0.00 0.00 0.00 35
20260905165034 88 178 8.0 12.0 0.00 0.00 0.00 34
20260905164033 89 144 7.0 12.0 0.00 0.00 0.00 33
20260905163034 89 170 8.0 13.0 0.00 0.00 0.00 30
20260905162034 91 155 6.0 10.0 0.00 0.00 0.00 29
20260905161034 91 175 8.0 13.0 0.00 0.00 0.00 29
20260905160033 91 177 9.0 12.0 0.00 0.00 0.00 28
20260905155034 91 168 10.0 11.0 0.00 0.00 0.00 28
20260905154034 92 172 8.0 12.0 0.00 0.00 0.00 27
20260905124534 97 243 2.0 5.0 0.00 0.00 0.00 22
20260905124034 96 252 5.0 9.0 0.00 0.00 0.00 23
20260905111114 96 31 1.0 2.0 0.00 0.00 0.00 24
20260905110533 95 39 2.0 5.0 0.00 0.00 0.00 24
20260905110034 94 20 3.0 5.0 0.00 0.00 0.00 25
20260905105534 94 100 3.0 5.0 0.00 0.00 0.00 26
20260905105034 94 139 4.0 7.0 0.00 0.00 0.00 25
20260905100534 95 106 1.0 1.0 0.00 0.00 0.00 25
20260905100034 92 124 4.0 7.0 0.00 0.00 0.00 27
20260905095534 92 177 4.0 7.0 0.00 0.00 0.00 27
20260905095034 93 222 4.0 9.0 0.00 0.00 0.00 26
20260905094534 94 344 1.0 4.0 0.00 0.00 0.00 26
20260905094034 91 234 4.0 10.0 0.00 0.00 0.00 28
20260905093533 92 223 7.0 11.0 0.00 0.00 0.00 27
20260905093034 92 336 3.0 5.0 0.00 0.00 0.00 27
20260905092534 93 307 3.0 5.0 0.00 0.00 0.00 27
20260905092034 92 240 4.0 8.0 0.00 0.00 0.00 27
20260905091534 92 267 3.0 6.0 0.00 0.00 0.00 27
20260905091033 93 317 2.0 5.0 0.00 0.00 0.00 26
20260905090534 93 239 2.0 5.0 0.00 0.00 0.00 27
20260905090034 92 56 2.0 4.0 0.00 0.00 0.00 27
20260905085533 91 202 3.0 8.0 0.00 0.00 0.00 28
20260905085034 91 212 2.0 4.0 0.00 0.00 0.00 27
20260905084534 90 202 4.0 7.0 0.00 0.00 0.00 28
20260905084033 91 216 3.0 7.0 0.00 0.00 0.00 28
20260905083534 90 199 4.0 7.0 0.00 0.00 0.00 28
20260905083034 89 236 3.0 7.0 0.00 0.00 0.00 28
20260905082534 89 219 5.0 9.0 0.00 0.00 0.00 29
20260905082034 89 210 3.0 7.0 0.00 0.00 0.00 29
20260905081534 88 209 5.0 8.0 0.00 0.00 0.00 29
20260905081034 89 198 4.0 7.0 0.00 0.00 0.00 29
20260905080534 89 228 4.0 6.0 0.00 0.00 0.00 29
20260905080034 89 239 3.0 5.0 0.00 0.00 0.00 29
20260905075533 88 219 4.0 5.0 0.00 0.00 0.00 29
20260905075034 88 217 4.0 7.0 0.00 0.00 0.00 29
20260905074534 88 206 5.0 7.0 0.00 0.00 0.00 29
20260905074033 87 227 4.0 6.0 0.00 0.00 0.00 30
20260905073614 87 229 4.0 7.0 0.00 0.00 0.00 30
20260905073034 87 238 5.0 7.0 0.00 0.00 0.00 30
20260905072534 87 234 4.0 6.0 0.00 0.00 0.00 30
20260905072054 86 234 3.0 5.0 0.00 0.00 0.00 30
20260905071534 85 223 4.0 7.0 0.00 0.00 0.00 31
20260905071034 85 228 5.0 7.0 0.00 0.00 0.00 32
20260905070534 84 228 5.0 7.0 0.00 0.00 0.00 32
20260905070034 84 216 5.0 7.0 0.00 0.00 0.00 32
20260905065534 84 215 4.0 6.0 0.00 0.00 0.00 32
20260905065034 83 225 3.0 5.0 0.00 0.00 0.00 34
20260905064557 82 223 4.0 5.0 0.00 0.00 0.00 35
20260905064053 82 224 3.0 5.0 0.00 0.00 0.00 37
20260905063534 81 232 3.0 4.0 0.00 0.00 0.00 38
20260905063034 80 223 4.0 5.0 0.00 0.00 0.00 38
20260905062554 80 234 3.0 4.0 0.00 0.00 0.00 39
20260905062033 79 241 3.0 4.0 0.00 0.00 0.00 39
20260905061534 79 241 3.0 4.0 0.00 0.00 0.00 39
20260905061034 78 240 4.0 5.0 0.00 0.00 0.00 40
20260905060534 78 242 4.0 5.0 0.00 0.00 0.00 39
20260905060034 77 241 4.0 5.0 0.00 0.00 0.00 39
20260905055554 76 236 4.0 5.0 0.00 0.00 0.00 40
20260905055035 76 233 4.0 5.0 0.00 0.00 0.00 40
20260905054534 76 237 4.0 6.0 0.00 0.00 0.00 40
20260905054034 76 236 3.0 5.0 0.00 0.00 0.00 39
20260905053534 76 239 3.0 4.0 0.00 0.00 0.00 39
20260905053034 75 248 3.0 4.0 0.00 0.00 0.00 40
20260905052534 75 244 3.0 5.0 0.00 0.00 0.00 40
20260905052053 75 235 4.0 5.0 0.00 0.00 0.00 40
20260905051533 74 241 3.0 4.0 0.00 0.00 0.00 41
20260905051054 74 247 3.0 3.0 0.00 0.00 0.00 42
20260905050534 73 242 3.0 4.0 0.00 0.00 0.00 42
20260905050033 73 239 4.0 5.0 0.00 0.00 0.00 42
20260905045534 73 240 4.0 5.0 0.00 0.00 0.00 42
20260905045034 73 240 4.0 5.0 0.00 0.00 0.00 42